sat.trackr.live / text

‹ back to catalog

ONEWEB-0151

NORAD 48066 · 2021-025AA

PAYLOAD ACTIVE UNKNOWN

§ Identity

Operator
Country
UK
Launch date
2021-03-25
Launch site
VOSTO
Launch vehicle
Mass (kg)
RCS (m²)

Purposes: comms

External: N2YO · Heavens-Above · Gunter

§ Orbital elements

Epoch: 2026-05-24T23:46:29.674272Z

Period
109.63 min
Inclination
87.8940°
Eccentricity
0.0001668
Mean motion
13.13468611 rev/d
Perigee alt
1,208.5 km
Apogee alt
1,211.0 km
Semi-major
7,587.9 km
B*
-7.0301e-4
RAAN
324.8406°
Arg perigee
89.8587°
Mean anomaly
270.2733°
Rev number
25,054

§ Raw data

ONEWEB-01511 48066U 21025AA  26144.99062123 -.00000244  00000+0 -70301-3 0  99982 48066  87.8940 324.8406 0001668  89.8587 270.2733 13.13468611250549

JSON: /api/v1/satellites/48066 · /tle

For live sub-satellite position, see the globe view (requires WebGL).

§ Visibility from observer

Set your observer location to see the next 7 days of passes ≥ 10°. The values pass through the URL so the page stays shareable.

No JS? Fill the form by hand. The geolocation button needs JavaScript.